| time (UTC) | temp F | wind direction | speed knots | gust knots | rain 1hr in | rain 24hr in | rain mn in | humidity % | barometer mb |
| 20260507083453 | 54 | 283 | 0.0 | 2.6 | 0.00 | 0.00 | 0.00 | 79 | 1016.7 |
| 20260507082912 | 54 | 239 | 0.9 | 1.7 | 0.00 | 0.00 | 0.00 | 78 | 1016.6 |
| 20260507082422 | 53 | 219 | 0.0 | 1.7 | 0.00 | 0.00 | 0.00 | 80 | 1016.6 |
| 20260507081913 | 53 | 298 | 0.0 | 1.7 | 0.00 | 0.00 | 0.00 | 81 | 1016.6 |
| 20260507081412 | 53 | 293 | 0.0 | 0.0 | 0.00 | 0.00 | 0.00 | 80 | 1016.6 |
| 20260507080924 | 53 | 294 | 0.0 | 0.9 | 0.00 | 0.00 | 0.00 | 81 | 1016.7 |
| 20260507080418 | 53 | 239 | 0.0 | 1.7 | 0.00 | 0.00 | 0.00 | 82 | 1016.6 |
| 20260507075945 | 52 | 281 | 0.9 | 1.7 | 0.00 | 0.00 | 0.00 | 83 | 1016.5 |
| 20260507075437 | 52 | 263 | 0.0 | 2.6 | 0.00 | 0.04 | 0.00 | 82 | 1016.5 |
| 20260507074921 | 52 | 173 | 0.0 | 2.6 | 0.00 | 0.04 | 0.00 | 82 | 1016.5 |
| 20260507074413 | 52 | 300 | 0.0 | 1.7 | 0.00 | 0.04 | 0.00 | 83 | 1016.4 |
| 20260507073919 | 51 | 264 | 0.0 | 2.6 | 0.00 | 0.04 | 0.00 | 83 | 1016.3 |
| 20260507073414 | 51 | 295 | 0.9 | 2.6 | 0.00 | 0.04 | 0.00 | 83 | 1016.4 |
| 20260507072947 | 51 | 262 | 0.0 | 3.5 | 0.00 | 0.04 | 0.00 | 83 | 1016.4 |
| 20260507072437 | 51 | 280 | 0.0 | 3.5 | 0.00 | 0.04 | 0.00 | 84 | 1016.3 |
| 20260507071927 | 51 | 269 | 0.0 | 0.9 | 0.00 | 0.04 | 0.00 | 84 | 1016.2 |
| 20260507071428 | 51 | 4 | 0.0 | 0.9 | 0.00 | 0.04 | 0.00 | 83 | 1016.1 |
| 20260507070939 | 51 | 215 | 0.0 | 0.9 | 0.00 | 0.04 | 0.00 | 84 | 1016.2 |
| 20260507070418 | 50 | 310 | 0.0 | 0.9 | 0.00 | 0.04 | 0.00 | 84 | 1016.1 |
| 20260507065931 | 50 | 304 | 0.0 | 1.7 | 0.00 | 0.04 | 0.00 | 84 | 1016.1 |
| 20260507065424 | 50 | 295 | 0.0 | 1.7 | 0.00 | 0.04 | 0.00 | 85 | 1016.1 |
| 20260507064912 | 50 | 219 | 0.0 | 1.7 | 0.00 | 0.04 | 0.00 | 85 | 1016.1 |
| 20260507064431 | 50 | 297 | 0.0 | 1.7 | 0.00 | 0.04 | 0.00 | 85 | 1016.0 |
| 20260507063930 | 50 | 187 | 0.0 | 0.9 | 0.00 | 0.04 | 0.00 | 85 | 1016.1 |
| 20260507063418 | 49 | 187 | 0.0 | 0.9 | 0.00 | 0.04 | 0.00 | 85 | 1016.0 |
| 20260507062931 | 49 | 187 | 0.0 | 0.9 | 0.00 | 0.04 | 0.00 | 85 | 1016.0 |
| 20260507062416 | 49 | 202 | 0.0 | 0.9 | 0.00 | 0.04 | 0.00 | 85 | 1016.0 |
| 20260507061929 | 49 | 160 | 0.0 | 0.9 | 0.00 | 0.04 | 0.00 | 86 | 1016.0 |
| 20260507061409 | 49 | 160 | 0.0 | 0.0 | 0.00 | 0.04 | 0.00 | 87 | 1015.9 |
| 20260507060923 | 48 | 160 | 0.0 | 0.0 | 0.00 | 0.04 | 0.00 | 87 | 1015.9 |
| 20260507060425 | 48 | 160 | 0.0 | 0.0 | 0.00 | 0.04 | 0.00 | 87 | 1015.8 |
| 20260507055932 | 48 | 160 | 0.0 | 0.0 | 0.00 | 0.04 | 0.00 | 88 | 1015.8 |
| 20260507055415 | 48 | 160 | 0.0 | 0.0 | 0.00 | 0.04 | 0.00 | 88 | 1015.8 |
| 20260507054928 | 48 | 160 | 0.0 | 0.0 | 0.00 | 0.04 | 0.00 | 88 | 1015.7 |
| 20260507054441 | 48 | 160 | 0.0 | 0.0 | 0.00 | 0.04 | 0.00 | 88 | 1015.6 |
| 20260507053924 | 48 | 160 | 0.0 | 0.0 | 0.00 | 0.04 | 0.00 | 88 | 1015.6 |
| 20260507053417 | 48 | 160 | 284.2 | 0.0 | 0.00 | 0.04 | 0.00 | 88 | 1015.5 |
| 20260507052930 | 0 | 0.0 | 0.0 | 0.00 | 0.04 | 0.00 | 1015.5 | ||
| 20260507052425 | 0 | 0.0 | 0.0 | 0.00 | 0.04 | 0.00 | 1015.4 | ||
| 20260507051950 | 0 | 0.0 | 0.0 | 0.00 | 0.04 | 0.00 | 1015.5 | ||
| 20260507051423 | 0 | 0.0 | 0.0 | 0.00 | 0.04 | 0.00 | 1015.5 | ||
| 20260507050430 | 0 | 0.0 | 0.0 | 0.00 | 0.04 | 0.00 | 1015.3 | ||
| 20260507045921 | 0 | 0.0 | 0.0 | 0.00 | 0.04 | 0.00 | 1015.3 | ||
| 20260507045421 | 0 | 0.0 | 0.0 | 0.00 | 0.04 | 0.00 | 1015.3 | ||
| 20260507044915 | 0 | 0.0 | 0.0 | 0.00 | 0.04 | 0.00 | 1015.2 | ||
| 20260507044534 | 0 | 0.0 | 0.0 | 0.00 | 0.04 | 0.00 | 1015.2 | ||
| 20260507043919 | 0 | 0.0 | 0.0 | 0.00 | 0.04 | 0.00 | 1015.1 | ||
| 20260507043412 | 0 | 0.0 | 0.0 | 0.00 | 0.04 | 0.00 | 1015.1 | ||
| 20260507042915 | 0 | 0.0 | 0.0 | 0.00 | 0.04 | 0.00 | 1015.1 | ||
| 20260507041922 | 46 | 155 | 0.0 | 0.0 | 0.00 | 0.04 | 0.00 | 87 | 1015.0 |
| 20260507041413 | 47 | 160 | 0.0 | 0.0 | 0.00 | 0.04 | 0.00 | 88 | 1015.0 |
| 20260507040429 | 47 | 160 | 0.0 | 0.0 | 0.00 | 0.04 | 0.00 | 88 | 1015.0 |
| 20260507040000 | 47 | 160 | 0.0 | 0.0 | 0.00 | 0.04 | 0.00 | 88 | 1015.0 |
| 20260507035422 | 47 | 160 | 0.0 | 0.9 | 0.00 | 0.04 | 0.00 | 88 | 1014.9 |
| 20260507034915 | 47 | 160 | 0.0 | 0.9 | 0.00 | 0.04 | 0.00 | 88 | 1014.9 |
| 20260507034428 | 47 | 131 | 0.0 | 0.9 | 0.00 | 0.04 | 0.00 | 88 | 1014.9 |
| 20260507033435 | 48 | 146 | 0.0 | 0.9 | 0.00 | 0.04 | 0.00 | 87 | 1014.8 |
| 20260507032927 | 48 | 146 | 0.0 | 0.0 | 0.00 | 0.04 | 0.00 | 87 | 1014.7 |
| 20260507032447 | 48 | 146 | 0.0 | 0.0 | 0.00 | 0.04 | 0.00 | 86 | 1014.7 |
| 20260507031937 | 48 | 146 | 0.0 | 0.9 | 0.00 | 0.04 | 0.00 | 87 | 1014.7 |
| 20260507031438 | 48 | 146 | 0.0 | 0.9 | 0.00 | 0.04 | 0.00 | 87 | 1014.7 |
| 20260507030927 | 48 | 146 | 0.0 | 0.0 | 0.00 | 0.04 | 0.00 | 86 | 1014.6 |
| 20260507030412 | 48 | 285 | 0.0 | 0.0 | 0.00 | 0.04 | 0.00 | 84 | 1014.6 |
| 20260507025948 | 48 | 284 | 0.0 | 0.0 | 0.00 | 0.04 | 0.00 | 83 | 1014.6 |
| 20260507025412 | 48 | 285 | 0.0 | 0.0 | 0.00 | 0.08 | 0.00 | 83 | 1014.6 |
| 20260507024947 | 48 | 285 | 0.0 | 0.0 | 0.00 | 0.08 | 0.00 | 83 | 1014.6 |
| 20260507024417 | 48 | 284 | 0.0 | 0.0 | 0.00 | 0.08 | 0.00 | 84 | 1014.6 |
| 20260507023930 | 48 | 285 | 0.0 | 0.0 | 0.00 | 0.08 | 0.00 | 85 | 1014.5 |
| 20260507023414 | 48 | 285 | 0.0 | 0.9 | 0.00 | 0.08 | 0.00 | 86 | 1014.5 |
| 20260507022419 | 48 | 284 | 0.0 | 0.9 | 0.00 | 0.08 | 0.00 | 87 | 1014.4 |
| 20260507021950 | 48 | 285 | 0.0 | 0.9 | 0.00 | 0.08 | 0.00 | 87 | 1014.5 |
| 20260507021428 | 48 | 285 | 0.0 | 0.0 | 0.00 | 0.08 | 0.00 | 87 | 1014.5 |
| 20260507020921 | 48 | 285 | 0.0 | 0.0 | 0.00 | 0.08 | 0.00 | 86 | 1014.4 |
| 20260507020418 | 48 | 285 | 0.0 | 0.0 | 0.00 | 0.08 | 0.00 | 85 | 1014.3 |
| 20260507015927 | 48 | 284 | 0.0 | 0.0 | 0.00 | 0.08 | 0.00 | 85 | 1014.3 |
| 20260507015424 | 48 | 285 | 0.0 | 0.0 | 0.00 | 0.08 | 0.00 | 85 | 1014.2 |
| 20260507014915 | 48 | 285 | 0.0 | 0.0 | 0.00 | 0.08 | 0.00 | 86 | 1014.2 |
| 20260507014449 | 48 | 285 | 0.0 | 0.0 | 0.00 | 0.08 | 0.00 | 87 | 1014.2 |
| 20260507013938 | 48 | 285 | 0.0 | 0.0 | 0.00 | 0.08 | 0.00 | 85 | 1014.1 |
| 20260507013424 | 48 | 285 | 0.0 | 0.0 | 0.00 | 0.08 | 0.00 | 84 | 1014.1 |
| 20260507012937 | 48 | 285 | 0.0 | 0.0 | 0.00 | 0.08 | 0.00 | 83 | 1014.1 |
| 20260507012458 | 48 | 285 | 0.0 | 0.0 | 0.00 | 0.08 | 0.00 | 84 | 1014.1 |
| 20260507011921 | 48 | 285 | 0.0 | 0.0 | 0.00 | 0.08 | 0.00 | 85 | 1014.1 |
| 20260507011432 | 48 | 285 | 0.0 | 0.0 | 0.00 | 0.08 | 0.00 | 85 | 1014.1 |
| 20260507010942 | 48 | 285 | 0.0 | 0.0 | 0.00 | 0.08 | 0.00 | 82 | 1014.2 |
| 20260507010428 | 48 | 285 | 0.0 | 0.0 | 0.00 | 0.08 | 0.00 | 82 | 1014.2 |
| 20260507005938 | 48 | 285 | 0.0 | 0.0 | 0.00 | 0.08 | 0.00 | 83 | 1014.1 |
| 20260507005410 | 49 | 285 | 0.0 | 0.0 | 0.00 | 0.08 | 0.00 | 83 | 1014.1 |
| 20260507004913 | 49 | 285 | 0.0 | 0.0 | 0.00 | 0.08 | 0.00 | 83 | 1014.1 |
| 20260507004421 | 49 | 285 | 0.0 | 0.0 | 0.00 | 0.08 | 0.00 | 80 | 1014.1 |
| 20260507003915 | 49 | 285 | 0.0 | 0.0 | 0.00 | 0.08 | 0.00 | 81 | 1014.1 |
| 20260507003417 | 49 | 285 | 0.0 | 0.0 | 0.00 | 0.08 | 0.00 | 80 | 1014.0 |
| 20260507002926 | 49 | 285 | 0.0 | 0.0 | 0.00 | 0.08 | 0.00 | 80 | 1014.0 |
| 20260507002420 | 49 | 285 | 0.0 | 0.0 | 0.00 | 0.08 | 0.00 | 80 | 1014.0 |
| 20260507001950 | 49 | 285 | 0.0 | 0.0 | 0.00 | 0.08 | 0.00 | 80 | 1014.0 |
| 20260507001500 | 49 | 285 | 0.0 | 0.0 | 0.00 | 0.08 | 0.00 | 80 | 1014.0 |
| 20260507000922 | 49 | 285 | 0.0 | 0.0 | 0.00 | 0.08 | 0.00 | 80 | 1013.9 |
| 20260507000458 | 49 | 285 | 0.0 | 0.0 | 0.00 | 0.08 | 0.00 | 80 | 1013.9 |
| 20260506235917 | 49 | 285 | 0.0 | 0.0 | 0.00 | 0.08 | 0.00 | 80 | 1013.9 |
| 20260506235450 | 49 | 285 | 0.0 | 0.0 | 0.00 | 0.20 | 0.00 | 80 | 1013.9 |
| 20260506234942 | 49 | 285 | 0.0 | 0.9 | 0.00 | 0.20 | 0.00 | 80 | 1013.9 |
| 20260506234423 | 49 | 285 | 0.0 | 0.9 | 0.00 | 0.20 | 0.00 | 80 | 1013.9 |
| 20260506233917 | 49 | 285 | 0.0 | 0.0 | 0.00 | 0.20 | 0.00 | 79 | 1013.8 |
| 20260506233430 | 49 | 285 | 0.0 | 0.0 | 0.00 | 0.20 | 0.00 | 79 | 1013.8 |
| 20260506232913 | 49 | 285 | 0.0 | 0.0 | 0.00 | 0.20 | 0.00 | 79 | 1013.7 |
| 20260506232427 | 49 | 285 | 0.0 | 0.0 | 0.00 | 0.20 | 0.00 | 79 | 1013.7 |
| 20260506231935 | 49 | 285 | 0.0 | 0.0 | 0.00 | 0.20 | 0.00 | 79 | 1013.7 |
| 20260506231418 | 49 | 285 | 0.0 | 0.0 | 0.00 | 0.20 | 0.00 | 79 | 1013.7 |
| 20260506230932 | 49 | 285 | 0.0 | 0.0 | 0.00 | 0.20 | 0.00 | 79 | 1013.7 |
| 20260506230439 | 49 | 285 | 0.0 | 0.0 | 0.00 | 0.20 | 0.00 | 79 | 1013.5 |
| 20260506225952 | 49 | 285 | 0.0 | 0.0 | 0.00 | 0.20 | 0.00 | 79 | 1013.5 |
| 20260506225414 | 49 | 285 | 0.0 | 0.0 | 0.00 | 0.35 | 0.00 | 79 | 1013.5 |
| 20260506224928 | 49 | 285 | 0.0 | 0.0 | 0.00 | 0.35 | 0.00 | 79 | 1013.5 |
| 20260506224426 | 49 | 285 | 0.0 | 0.0 | 0.00 | 0.35 | 0.00 | 78 | 1013.4 |
| 20260506223917 | 49 | 285 | 0.0 | 0.0 | 0.00 | 0.35 | 0.00 | 78 | 1013.4 |
| 20260506223432 | 49 | 285 | 0.0 | 0.0 | 0.00 | 0.35 | 0.00 | 78 | 1013.4 |
| 20260506222914 | 49 | 285 | 0.0 | 0.0 | 0.00 | 0.35 | 0.00 | 78 | 1013.4 |
| 20260506222429 | 49 | 285 | 0.0 | 0.0 | 0.00 | 0.35 | 0.00 | 79 | 1013.4 |
| 20260506221912 | 49 | 285 | 0.0 | 0.0 | 0.00 | 0.35 | 0.00 | 79 | 1013.4 |
| 20260506221423 | 49 | 285 | 0.0 | 0.0 | 0.00 | 0.35 | 0.00 | 80 | 1013.3 |
| 20260506220934 | 49 | 285 | 0.0 | 0.0 | 0.00 | 0.35 | 0.00 | 79 | 1013.3 |
| 20260506220437 | 49 | 285 | 0.0 | 0.0 | 0.00 | 0.35 | 0.00 | 80 | 1013.3 |
| 20260506215917 | 48 | 285 | 0.0 | 0.0 | 0.00 | 0.35 | 0.00 | 80 | 1013.3 |
| 20260506215428 | 48 | 285 | 0.0 | 0.0 | 0.00 | 0.51 | 0.07 | 80 | 1013.4 |
| 20260506214940 | 48 | 285 | 0.0 | 0.0 | 0.00 | 0.51 | 0.07 | 81 | 1013.4 |
| 20260506214413 | 48 | 285 | 0.0 | 0.0 | 0.00 | 0.51 | 0.07 | 81 | 1013.3 |
| 20260506213942 | 48 | 285 | 0.0 | 0.0 | 0.00 | 0.51 | 0.07 | 82 | 1013.3 |
| 20260506213431 | 47 | 285 | 0.0 | 0.0 | 0.00 | 0.51 | 0.07 | 81 | 1013.2 |
| 20260506212926 | 47 | 285 | 0.0 | 0.0 | 0.00 | 0.51 | 0.07 | 82 | 1013.2 |
| 20260506212411 | 47 | 285 | 0.0 | 0.0 | 0.00 | 0.51 | 0.07 | 82 | 1013.2 |
| 20260506211944 | 48 | 285 | 0.0 | 0.0 | 0.00 | 0.51 | 0.07 | 82 | 1013.2 |
| 20260506211435 | 48 | 285 | 0.0 | 0.0 | 0.00 | 0.51 | 0.07 | 82 | 1013.1 |
| 20260506210928 | 48 | 285 | 0.0 | 0.0 | 0.00 | 0.51 | 0.07 | 81 | 1013.0 |
| 20260506210434 | 48 | 285 | 0.0 | 0.0 | 0.00 | 0.51 | 0.07 | 81 | 1013.1 |
| 20260506205947 | 48 | 285 | 0.0 | 0.0 | 0.00 | 0.51 | 0.07 | 81 | 1013.0 |
| 20260506205422 | 48 | 285 | 0.0 | 0.0 | 0.00 | 0.63 | 0.07 | 81 | 1013.0 |
| 20260506204913 | 48 | 285 | 0.0 | 0.0 | 0.00 | 0.63 | 0.07 | 81 | 1013.0 |
| 20260506204445 | 48 | 285 | 0.0 | 0.0 | 0.00 | 0.63 | 0.07 | 81 | 1012.9 |
| 20260506203935 | 48 | 285 | 0.0 | 0.0 | 0.00 | 0.63 | 0.07 | 80 | 1013.0 |
| 20260506203415 | 48 | 285 | 0.0 | 0.0 | 0.00 | 0.63 | 0.07 | 80 | 1012.9 |
| 20260506202930 | 48 | 285 | 0.0 | 0.0 | 0.00 | 0.63 | 0.07 | 80 | 1012.9 |
| 20260506202412 | 48 | 285 | 0.0 | 0.0 | 0.00 | 0.63 | 0.07 | 79 | 1012.9 |
| 20260506201922 | 49 | 285 | 0.0 | 0.0 | 0.00 | 0.63 | 0.07 | 79 | 1012.8 |
| 20260506201433 | 49 | 285 | 0.0 | 0.9 | 0.00 | 0.63 | 0.07 | 78 | 1012.8 |
| 20260506200919 | 49 | 285 | 0.0 | 0.9 | 0.00 | 0.63 | 0.07 | 78 | 1012.7 |
| 20260506200423 | 50 | 285 | 0.0 | 1.7 | 0.00 | 0.63 | 0.07 | 77 | 1012.7 |
| 20260506195936 | 50 | 304 | 0.0 | 2.6 | 0.00 | 0.63 | 0.07 | 77 | 1012.7 |
| 20260506195420 | 50 | 267 | 0.9 | 3.5 | 0.00 | 0.75 | 0.07 | 76 | 1012.7 |
| 20260506194931 | 50 | 302 | 1.7 | 3.5 | 0.00 | 0.75 | 0.07 | 75 | 1012.6 |
| 20260506193927 | 51 | 337 | 0.9 | 3.5 | 0.00 | 0.75 | 0.07 | 75 | 1012.5 |
| 20260506193441 | 51 | 344 | 0.9 | 3.5 | 0.00 | 0.75 | 0.07 | 74 | 1012.5 |
| 20260506192932 | 52 | 279 | 0.9 | 3.5 | 0.00 | 0.75 | 0.07 | 74 | 1012.5 |
| 20260506192413 | 52 | 17 | 0.9 | 3.5 | 0.00 | 0.75 | 0.07 | 73 | 1012.3 |
| 20260506191927 | 52 | 307 | 0.9 | 2.6 | 0.00 | 0.75 | 0.07 | 72 | 1012.2 |
| 20260506191411 | 52 | 296 | 0.9 | 3.5 | 0.00 | 0.75 | 0.07 | 71 | 1012.2 |
| 20260506190925 | 52 | 322 | 0.9 | 1.7 | 0.00 | 0.75 | 0.07 | 72 | 1012.1 |
| 20260506190427 | 52 | 300 | 0.0 | 2.6 | 0.00 | 0.75 | 0.07 | 70 | 1012.0 |
| 20260506185939 | 53 | 269 | 0.9 | 2.6 | 0.00 | 0.75 | 0.07 | 70 | 1011.9 |
| 20260506185414 | 53 | 310 | 0.9 | 3.5 | 0.00 | 0.75 | 0.07 | 70 | 1011.8 |
| 20260506184925 | 53 | 6 | 0.9 | 3.5 | 0.00 | 0.75 | 0.07 | 70 | 1011.8 |
| 20260506184437 | 53 | 289 | 0.9 | 1.7 | 0.00 | 0.75 | 0.07 | 69 | 1011.7 |
| 20260506183921 | 53 | 273 | 0.0 | 1.7 | 0.00 | 0.75 | 0.07 | 72 | 1011.6 |
| 20260506183433 | 53 | 13 | 0.0 | 1.7 | 0.00 | 0.75 | 0.07 | 72 | 1011.5 |
| 20260506182918 | 54 | 271 | 0.0 | 2.6 | 0.00 | 0.75 | 0.07 | 72 | 1011.5 |
| 20260506182431 | 54 | 286 | 0.0 | 2.6 | 0.00 | 0.75 | 0.07 | 71 | 1011.4 |
| 20260506181942 | 54 | 268 | 0.0 | 1.7 | 0.00 | 0.75 | 0.07 | 71 | 1011.4 |
| 20260506181432 | 54 | 239 | 0.9 | 4.3 | 0.00 | 0.75 | 0.07 | 71 | 1011.2 |
| 20260506180916 | 54 | 330 | 0.9 | 4.3 | 0.00 | 0.75 | 0.07 | 72 | 1011.2 |
| 20260506180422 | 54 | 244 | 1.7 | 3.5 | 0.00 | 0.75 | 0.07 | 72 | 1011.1 |
| 20260506175932 | 54 | 269 | 0.9 | 6.1 | 0.00 | 0.75 | 0.07 | 73 | 1011.1 |
| 20260506175415 | 54 | 9 | 1.7 | 6.1 | 0.00 | 0.75 | 0.07 | 71 | 1011.0 |
| 20260506174927 | 54 | 223 | 0.0 | 1.7 | 0.00 | 0.75 | 0.07 | 72 | 1010.9 |
| 20260506174411 | 54 | 206 | 0.0 | 1.7 | 0.00 | 0.75 | 0.07 | 72 | 1010.8 |
| 20260506173925 | 55 | 206 | 0.0 | 0.9 | 0.00 | 0.75 | 0.07 | 72 | 1010.7 |
| 20260506173436 | 55 | 246 | 0.0 | 2.6 | 0.00 | 0.75 | 0.07 | 72 | 1010.7 |
| 20260506172929 | 55 | 217 | 0.0 | 1.7 | 0.00 | 0.75 | 0.07 | 72 | 1010.6 |
| 20260506172414 | 55 | 217 | 0.0 | 0.9 | 0.00 | 0.75 | 0.07 | 73 | 1010.6 |
| 20260506171922 | 55 | 212 | 0.0 | 1.7 | 0.00 | 0.75 | 0.07 | 73 | 1010.6 |
| 20260506171427 | 55 | 212 | 0.0 | 1.7 | 0.00 | 0.75 | 0.07 | 72 | 1010.5 |
| 20260506170920 | 55 | 219 | 0.0 | 2.6 | 0.00 | 0.75 | 0.07 | 72 | 1010.5 |
| 20260506170426 | 55 | 335 | 0.0 | 2.6 | 0.00 | 0.75 | 0.07 | 73 | 1010.5 |
| 20260506165933 | 55 | 259 | 0.0 | 2.6 | 0.00 | 0.75 | 0.07 | 74 | 1010.5 |
| 20260506165413 | 55 | 200 | 0.0 | 2.6 | 0.00 | 0.75 | 0.07 | 73 | 1010.4 |
| 20260506164934 | 55 | 205 | 0.9 | 2.6 | 0.00 | 0.75 | 0.07 | 74 | 1010.4 |
| 20260506164439 | 55 | 269 | 0.0 | 1.7 | 0.00 | 0.75 | 0.07 | 75 | 1010.4 |
| 20260506163930 | 55 | 292 | 0.0 | 1.7 | 0.00 | 0.75 | 0.07 | 75 | 1010.3 |
| 20260506163425 | 55 | 301 | 0.9 | 1.7 | 0.00 | 0.75 | 0.07 | 75 | 1010.3 |
| 20260506162959 | 55 | 276 | 0.9 | 1.7 | 0.00 | 0.75 | 0.07 | 76 | 1010.3 |
| 20260506162422 | 55 | 285 | 0.9 | 1.7 | 0.00 | 0.75 | 0.07 | 75 | 1010.3 |
| 20260506161914 | 55 | 281 | 0.9 | 1.7 | 0.00 | 0.75 | 0.07 | 75 | 1010.3 |
| 20260506161418 | 55 | 320 | 0.0 | 2.6 | 0.00 | 0.75 | 0.07 | 76 | 1010.3 |
| 20260506160930 | 55 | 302 | 0.0 | 2.6 | 0.00 | 0.75 | 0.07 | 75 | 1010.3 |
| 20260506160413 | 55 | 326 | 0.0 | 1.7 | 0.00 | 0.75 | 0.07 | 75 | 1010.3 |
| 20260506155916 | 55 | 291 | 0.0 | 1.7 | 0.00 | 0.75 | 0.07 | 74 | 1010.3 |
| 20260506155428 | 55 | 319 | 0.0 | 3.5 | 0.00 | 0.75 | 0.07 | 74 | 1010.3 |
| 20260506154921 | 55 | 316 | 0.9 | 3.5 | 0.00 | 0.75 | 0.07 | 74 | 1010.3 |
| 20260506154420 | 55 | 327 | 0.0 | 2.6 | 0.00 | 0.75 | 0.07 | 73 | 1010.3 |
| 20260506153914 | 55 | 315 | 0.9 | 3.5 | 0.00 | 0.75 | 0.07 | 73 | 1010.3 |
| 20260506153446 | 55 | 291 | 0.9 | 3.5 | 0.00 | 0.75 | 0.07 | 73 | 1010.3 |
| 20260506152938 | 55 | 302 | 0.9 | 3.5 | 0.00 | 0.75 | 0.07 | 72 | 1010.3 |
| 20260506152421 | 55 | 300 | 0.9 | 4.3 | 0.00 | 0.75 | 0.07 | 72 | 1010.3 |
| 20260506151935 | 55 | 315 | 0.9 | 8.7 | 0.00 | 0.75 | 0.07 | 71 | 1010.3 |
| 20260506151415 | 56 | 274 | 0.9 | 6.1 | 0.00 | 0.75 | 0.07 | 71 | 1010.3 |
| 20260506150916 | 56 | 194 | 1.7 | 6.1 | 0.00 | 0.75 | 0.07 | 71 | 1010.2 |
| 20260506150417 | 56 | 203 | 1.7 | 4.3 | 0.00 | 0.75 | 0.07 | 70 | 1010.2 |
| 20260506145921 | 56 | 225 | 0.9 | 4.3 | 0.00 | 0.75 | 0.07 | 71 | 1010.3 |
| 20260506145427 | 57 | 208 | 0.0 | 5.2 | 0.00 | 0.75 | 0.07 | 70 | 1010.2 |
| 20260506144436 | 58 | 309 | 3.5 | 6.1 | 0.00 | 0.75 | 0.07 | 67 | 1010.1 |
| 20260506143911 | 58 | 321 | 1.7 | 5.2 | 0.00 | 0.75 | 0.07 | 70 | 1010.1 |
| 20260506143424 | 57 | 319 | 0.9 | 5.2 | 0.00 | 0.75 | 0.07 | 71 | 1010.0 |
| 20260506142936 | 57 | 248 | 1.7 | 6.1 | 0.00 | 0.75 | 0.07 | 70 | 1010.0 |
| 20260506142416 | 57 | 270 | 2.6 | 6.1 | 0.00 | 0.75 | 0.07 | 70 | 1010.0 |
| 20260506141928 | 58 | 352 | 1.7 | 4.3 | 0.00 | 0.75 | 0.07 | 71 | 1010.1 |
| 20260506141426 | 58 | 8 | 0.0 | 4.3 | 0.00 | 0.75 | 0.07 | 69 | 1010.0 |
| 20260506140929 | 58 | 326 | 0.9 | 4.3 | 0.00 | 0.75 | 0.07 | 73 | 1010.0 |
| 20260506135913 | 58 | 326 | 1.7 | 7.8 | 0.00 | 0.75 | 0.07 | 73 | 1010.1 |
| 20260506135425 | 58 | 208 | 2.6 | 7.8 | 0.00 | 0.75 | 0.07 | 72 | 1010.0 |
| 20260506134911 | 58 | 239 | 3.5 | 7.0 | 0.00 | 0.75 | 0.07 | 70 | 1010.0 |
| 20260506134443 | 58 | 309 | 0.9 | 4.3 | 0.00 | 0.75 | 0.07 | 72 | 1010.0 |
| 20260506133913 | 58 | 211 | 0.9 | 3.5 | 0.00 | 0.75 | 0.07 | 73 | 1010.0 |
| 20260506133425 | 58 | 223 | 0.9 | 2.6 | 0.00 | 0.75 | 0.07 | 73 | 1009.9 |
| 20260506132927 | 57 | 240 | 0.9 | 4.3 | 0.00 | 0.75 | 0.07 | 72 | 1010.0 |
| 20260506132419 | 57 | 306 | 0.0 | 4.3 | 0.00 | 0.75 | 0.07 | 71 | 1010.0 |
| 20260506131911 | 57 | 203 | 1.7 | 5.2 | 0.00 | 0.75 | 0.07 | 73 | 1010.0 |
| 20260506131425 | 57 | 224 | 1.7 | 5.2 | 0.00 | 0.75 | 0.07 | 72 | 1010.0 |
| 20260506130939 | 56 | 181 | 0.9 | 3.5 | 0.00 | 0.75 | 0.07 | 74 | 1009.9 |
| 20260506130416 | 56 | 278 | 0.9 | 3.5 | 0.00 | 0.75 | 0.07 | 75 | 1009.9 |
| 20260506125929 | 57 | 348 | 0.9 | 3.5 | 0.00 | 0.75 | 0.07 | 73 | 1009.9 |
| 20260506125438 | 57 | 319 | 0.9 | 1.7 | 0.00 | 0.75 | 0.07 | 73 | 1009.8 |
| 20260506124951 | 57 | 311 | 0.0 | 1.7 | 0.00 | 0.75 | 0.07 | 75 | 1009.8 |
| 20260506124412 | 57 | 335 | 0.9 | 2.6 | 0.00 | 0.75 | 0.07 | 74 | 1009.8 |
| 20260506123924 | 57 | 264 | 0.9 | 2.6 | 0.00 | 0.75 | 0.07 | 74 | 1009.8 |
| 20260506123430 | 56 | 276 | 0.0 | 1.7 | 0.00 | 0.75 | 0.07 | 77 | 1009.8 |
| 20260506122927 | 56 | 174 | 0.0 | 3.5 | 0.00 | 0.75 | 0.07 | 77 | 1009.8 |
| 20260506122440 | 55 | 208 | 0.0 | 3.5 | 0.00 | 0.75 | 0.07 | 76 | 1009.9 |
| 20260506121931 | 55 | 252 | 0.0 | 3.5 | 0.00 | 0.75 | 0.07 | 76 | 1009.9 |
| 20260506121415 | 56 | 295 | 1.7 | 4.3 | 0.00 | 0.75 | 0.07 | 74 | 1009.9 |
| 20260506120927 | 56 | 306 | 1.7 | 4.3 | 0.00 | 0.75 | 0.07 | 79 | 1009.9 |
| 20260506120411 | 56 | 305 | 0.9 | 3.5 | 0.00 | 0.75 | 0.07 | 78 | 1009.9 |
| 20260506115915 | 55 | 193 | 0.0 | 2.6 | 0.00 | 0.75 | 0.07 | 79 | 1009.9 |
| 20260506115426 | 55 | 189 | 0.0 | 3.5 | 0.00 | 0.75 | 0.07 | 79 | 1009.8 |
| 20260506114940 | 55 | 339 | 0.9 | 3.5 | 0.00 | 0.75 | 0.07 | 79 | 1009.8 |
| 20260506114423 | 55 | 16 | 0.9 | 2.6 | 0.00 | 0.75 | 0.07 | 78 | 1009.8 |
| 20260506113916 | 55 | 319 | 0.0 | 3.5 | 0.00 | 0.75 | 0.07 | 78 | 1009.8 |
| 20260506113418 | 55 | 185 | 0.9 | 3.5 | 0.00 | 0.75 | 0.07 | 79 | 1009.9 |
| 20260506112911 | 55 | 189 | 0.9 | 1.7 | 0.00 | 0.75 | 0.07 | 82 | 1009.9 |
| 20260506112424 | 54 | 198 | 0.0 | 1.7 | 0.00 | 0.75 | 0.07 | 84 | 1009.8 |
| 20260506111955 | 54 | 120 | 0.0 | 3.5 | 0.00 | 0.75 | 0.07 | 85 | 1009.9 |
| 20260506111418 | 54 | 176 | 0.0 | 3.5 | 0.00 | 0.75 | 0.07 | 85 | 1009.9 |
| 20260506110929 | 54 | 212 | 0.9 | 2.6 | 0.00 | 0.75 | 0.07 | 84 | 1009.8 |
| 20260506110434 | 54 | 184 | 0.0 | 2.6 | 0.00 | 0.75 | 0.07 | 85 | 1009.9 |
| 20260506105913 | 53 | 205 | 0.9 | 5.2 | 0.00 | 0.75 | 0.07 | 84 | 1009.9 |
| 20260506105424 | 54 | 229 | 0.0 | 3.5 | 0.00 | 0.75 | 0.07 | 85 | 1009.9 |
| 20260506104935 | 54 | 207 | 0.9 | 3.5 | 0.00 | 0.75 | 0.07 | 85 | 1010.0 |
| 20260506104420 | 54 | 207 | 0.9 | 3.5 | 0.00 | 0.75 | 0.07 | 86 | 1010.0 |
| 20260506103931 | 53 | 245 | 1.7 | 3.5 | 0.00 | 0.75 | 0.07 | 85 | 1010.1 |
| 20260506103424 | 53 | 248 | 0.9 | 4.3 | 0.00 | 0.75 | 0.07 | 86 | 1010.1 |
| 20260506102958 | 53 | 153 | 1.7 | 4.3 | 0.00 | 0.75 | 0.07 | 87 | 1010.0 |
| 20260506102422 | 52 | 233 | 1.7 | 4.3 | 0.00 | 0.75 | 0.07 | 89 | 1010.0 |
| 20260506101914 | 52 | 193 | 0.0 | 3.5 | 0.00 | 0.75 | 0.07 | 90 | 1010.0 |
| 20260506101418 | 52 | 325 | 0.9 | 3.5 | 0.00 | 0.75 | 0.07 | 90 | 1010.0 |
| 20260506100930 | 52 | 274 | 0.9 | 2.6 | 0.00 | 0.75 | 0.07 | 91 | 1010.0 |
| 20260506100413 | 51 | 327 | 0.9 | 2.6 | 0.00 | 0.75 | 0.07 | 90 | 1010.0 |
| 20260506095917 | 51 | 230 | 0.0 | 1.7 | 0.00 | 0.75 | 0.07 | 91 | 1010.0 |
| 20260506095430 | 51 | 208 | 0.0 | 2.6 | 0.00 | 0.75 | 0.07 | 91 | 1010.0 |
| 20260506094924 | 51 | 225 | 0.0 | 4.3 | 0.00 | 0.75 | 0.07 | 91 | 1010.0 |
| 20260506094427 | 50 | 211 | 0.9 | 4.3 | 0.00 | 0.75 | 0.07 | 91 | 1010.0 |
| 20260506093918 | 50 | 325 | 0.9 | 3.5 | 0.00 | 0.75 | 0.07 | 91 | 1010.0 |
| 20260506093431 | 51 | 317 | 0.0 | 5.2 | 0.00 | 0.75 | 0.07 | 93 | 1009.9 |
| 20260506092911 | 50 | 214 | 1.7 | 5.2 | 0.00 | 0.75 | 0.07 | 92 | 1009.8 |
| 20260506092421 | 50 | 192 | 0.0 | 5.2 | 0.00 | 0.75 | 0.07 | 93 | 1009.8 |
| 20260506091924 | 50 | 316 | 1.7 | 5.2 | 0.00 | 0.75 | 0.07 | 93 | 1009.9 |
| 20260506091418 | 50 | 148 | 0.9 | 4.3 | 0.00 | 0.75 | 0.07 | 93 | 1009.8 |
| 20260506090931 | 50 | 215 | 0.9 | 4.3 | 0.00 | 0.75 | 0.07 | 93 | 1009.8 |
| 20260506090435 | 50 | 217 | 0.0 | 3.5 | 0.00 | 0.75 | 0.07 | 94 | 1009.8 |
| 20260506085918 | 49 | 311 | 0.0 | 2.6 | 0.00 | 0.75 | 0.07 | 94 | 1009.8 |
| 20260506085412 | 49 | 294 | 0.9 | 2.6 | 0.00 | 0.75 | 0.07 | 94 | 1009.7 |
| 20260506084924 | 49 | 286 | 0.0 | 3.5 | 0.00 | 0.75 | 0.07 | 94 | 1009.6 |
| 20260506084417 | 49 | 292 | 1.7 | 4.3 | 0.00 | 0.75 | 0.07 | 94 | 1009.6 |
| 20260506083930 | 49 | 304 | 0.9 | 4.3 | 0.00 | 0.75 | 0.07 | 94 | 1009.6 |